Date_and_time,latitude,longitude,wind_speed,RelWindDirFrom,WindDirFrom,air_pressure,air_temperature,relative_humidity,Temp,platform_speed_wrt_ground,air_pressure_at_mean_sea_level,platform_orientation
2018-08-19 00:00,50.6304183333333,-96.9807566666667,8.2,9.7,12,980.92,22.7,80,21.16,0.0,1006.37,155.6
2018-08-19 00:10,50.6304283333333,-96.9807666666667,6.6,7.9,11,981.04,22.9,77,21.08,0.0,1006.44,155.6
2018-08-19 00:20,50.63043,-96.9807716666667,5.5,6.3,7,981.06,22.8,78,21.05,0.0,1006.43,155.6
2018-08-19 00:30,50.63043,-96.9807716666667,5.5,6.3,357,981.02,23.1,76,21.23,0.0,1006.34,155.6
2018-08-19 00:40,50.6304416666667,-96.9807733333333,2.9,4.2,349,980.89,23.3,74,21.32,0.0,1006.23,155.6
2018-08-19 00:50,50.6304383333333,-96.9807683333333,2.2,3.2,281,980.80,23.9,68,21.23,0.0,1006.17,155.6
2018-08-19 01:00,50.63047,-96.9807683333333,1.8,2.9,277,980.83,24.7,63,21.13,0.0,1006.16,360.0
2018-08-19 01:10,50.6304533333333,-96.98076,1.2,2.9,197,980.92,24.5,69,21.09,0.0,1006.22,360.0
2018-08-19 01:20,50.6304333333333,-96.9807716666667,1.8,2.4,146,981.07,23.6,69,21.07,0.0,1006.40,360.0
2018-08-19 01:30,50.6304766666667,-96.9807833333333,0.8,3.0,226,981.21,23.4,76,21.10,0.0,1006.56,360.0
2018-08-19 01:40,50.6304616666667,-96.9807733333333,3.7,5.1,275,981.37,23.6,69,21.15,0.0,1006.83,360.0
2018-08-19 01:50,50.63046,-96.980775,3.1,5.8,270,981.43,24.6,62,21.13,0.0,1006.88,360.0
2018-08-19 02:00,50.6304583333333,-96.98077,3.2,4.8,271,981.44,24.7,61,21.17,0.0,1006.89,360.0
2018-08-19 02:10,50.6304583333333,-96.9807683333333,3.0,5.0,284,981.40,24.6,60,21.12,0.0,1006.85,360.0
2018-08-19 02:20,50.6304583333333,-96.9807683333333,3.8,6.7,285,981.29,24.5,60,21.10,0.0,1006.72,360.0
2018-08-19 02:30,50.6304566666667,-96.9807683333333,4.6,6.4,293,981.24,24.4,61,21.08,0.0,1006.67,360.0
2018-08-19 02:40,50.6304566666667,-96.9807683333333,4.1,6.1,284,981.30,24.1,62,21.22,0.0,1006.72,360.0
2018-08-19 02:50,50.630455,-96.9807683333333,3.9,5.6,276,981.46,23.8,63,21.27,0.0,1006.86,360.0
2018-08-19 03:00,50.6304566666667,-96.980765,4.6,7.0,277,981.61,23.6,64,21.17,0.0,1007.04,355.3
2018-08-19 03:10,50.63044,-96.9807533333333,5.2,6.8,281,981.81,23.2,66,21.07,0.0,1007.29,355.3
2018-08-19 03:20,50.63044,-96.9807583333333,4.7,8.3,279,982.14,23.0,67,21.10,0.0,1007.64,355.3
2018-08-19 03:30,50.63043,-96.9807716666667,5.4,7.8,301,982.58,23.2,67,21.23,0.0,1008.08,355.3
2018-08-19 03:40,50.63044,-96.9807633333333,5.6,9.2,328,982.80,23.4,68,21.17,0.0,1008.26,355.3
2018-08-19 03:50,50.63044,-96.9807616666667,7.6,11.7,334,982.86,23.5,67,21.14,0.0,1008.32,355.3
2018-08-19 04:00,50.6304416666667,-96.980765,6.7,10.3,330,982.85,23.5,67,21.19,0.0,1008.30,360.0
2018-08-19 04:10,50.6304433333333,-96.980765,6.1,9.3,319,982.98,23.3,68,21.25,0.0,1008.45,360.0
2018-08-19 04:20,50.6304433333333,-96.9807633333333,4.4,6.5,312,983.11,23.0,70,21.20,0.0,1008.60,360.0
2018-08-19 04:30,50.630445,-96.9807666666667,3.6,5.5,336,982.92,22.7,72,21.12,0.0,1008.42,360.0
2018-08-19 04:40,50.630445,-96.9807666666667,4.7,7.1,332,982.67,22.4,74,21.10,0.0,1008.20,360.0
2018-08-19 04:50,50.63045,-96.9807766666667,5.2,7.5,318,982.62,22.2,74,21.13,0.0,1008.17,360.0
2018-08-19 05:00,50.6304433333333,-96.980765,5.3,7.0,315,982.62,22.2,72,21.08,0.0,1008.18,360.0
2018-08-19 05:10,50.6304433333333,-96.9807633333333,5.2,7.0,316,982.54,22.0,72,21.06,0.0,1008.12,360.0
2018-08-19 05:20,50.6304433333333,-96.9807633333333,5.4,7.8,303,982.58,21.8,72,21.06,0.0,1008.16,360.0
2018-08-19 05:30,50.6304416666667,-96.9807633333333,5.8,8.8,313,982.40,21.7,71,21.07,0.0,1007.98,360.0
2018-08-19 05:40,50.63044,-96.980765,7.1,10.0,306,982.58,21.7,68,21.09,0.0,1008.15,360.0
2018-08-19 05:50,50.6304416666667,-96.9807633333333,5.5,9.2,301,982.77,21.9,65,21.07,0.0,1008.34,360.0
2018-08-19 06:00,50.6304433333333,-96.980765,6.0,7.9,311,982.67,21.8,66,21.10,0.0,1008.25,360.0
2018-08-19 06:10,50.6304433333333,-96.980765,6.6,8.3,310,982.63,21.6,66,21.12,0.0,1008.23,360.0
2018-08-19 06:20,50.6304516666667,-96.9807683333333,6.5,8.6,303,982.86,21.5,66,21.13,0.0,1008.48,360.0
2018-08-19 06:30,50.6304433333333,-96.9807766666667,5.9,8.6,297,983.10,21.2,67,21.09,0.0,1008.76,360.0
2018-08-19 06:40,50.630445,-96.9807766666667,5.9,9.4,297,983.29,21.0,67,21.09,0.0,1008.97,360.0
2018-08-19 06:50,50.6304433333333,-96.9807766666667,7.2,11.8,292,983.35,21.0,67,21.11,0.0,1009.04,360.0
2018-08-19 07:00,50.630445,-96.980775,9.1,13.4,311,983.42,21.2,63,21.11,0.0,1009.11,270.0
2018-08-19 07:10,50.630445,-96.9807766666667,8.4,14.5,320,983.43,21.3,61,21.09,0.0,1009.11,270.0
2018-08-19 07:20,50.6304433333333,-96.9807733333333,8.3,13.9,319,983.53,21.1,62,21.08,0.0,1009.23,270.0
2018-08-19 07:30,50.6304383333333,-96.9807766666667,7.7,12.3,316,983.80,20.9,62,21.08,0.0,1009.52,270.0
2018-08-19 07:40,50.6304316666667,-96.9807633333333,8.1,11.8,316,984.03,20.7,62,21.05,0.0,1009.75,270.0
2018-08-19 07:50,50.6304366666667,-96.980775,9.1,13.7,310,984.27,20.6,58,21.03,0.0,1010.01,270.0
2018-08-19 08:00,50.6304333333333,-96.9807666666667,8.3,15.6,307,984.61,20.6,55,21.00,0.0,1010.37,142.0
2018-08-19 08:10,50.6304316666667,-96.98077,11.3,16.9,319,984.70,20.5,54,20.97,0.0,1010.47,142.0
2018-08-19 08:20,50.630415,-96.98078,8.2,13.7,314,985.11,20.2,55,20.99,0.0,1010.91,142.0
2018-08-19 08:30,50.6304416666667,-96.9807816666667,11.6,19.6,322,984.90,19.9,57,20.98,0.0,1010.72,142.0
2018-08-19 08:40,50.6304416666667,-96.9807683333333,10.9,17.1,321,984.91,19.7,59,20.98,0.0,1010.74,142.0
2018-08-19 08:50,50.63044,-96.9807583333333,11.8,19.8,323,984.88,19.5,60,20.97,0.0,1010.71,142.0
2018-08-19 09:00,50.6304366666667,-96.9807633333333,10.8,17.4,321,985.05,19.2,61,20.94,0.0,1010.90,142.0
2018-08-19 09:10,50.630435,-96.980765,12.2,19.1,324,984.99,18.9,63,20.93,0.0,1010.86,142.0
2018-08-19 09:20,50.6304383333333,-96.9807666666667,11.7,20.1,322,985.12,18.6,64,20.93,0.0,1011.01,142.0
2018-08-19 09:30,50.6304383333333,-96.980765,11.6,17.4,323,985.22,18.3,64,20.91,0.0,1011.13,142.0
2018-08-19 09:40,50.6304383333333,-96.9807666666667,10.5,15.8,322,985.39,18.1,64,20.90,0.0,1011.32,142.0
2018-08-19 09:50,50.6304333333333,-96.9807616666667,8.5,16.8,320,985.62,17.9,66,20.90,0.0,1011.57,142.0
2018-08-19 10:00,50.6304416666667,-96.980765,10.4,16.1,321,985.65,17.6,66,20.90,0.0,1011.61,90.0
2018-08-19 10:10,50.63042,-96.9808166666667,11.8,18.9,320,985.63,17.4,65,20.91,0.0,1011.62,90.0
2018-08-19 10:20,50.63044,-96.9807866666667,10.5,15.7,326,985.72,17.3,64,20.90,0.0,1011.73,90.0
2018-08-19 10:30,50.6304383333333,-96.9807783333333,9.6,15.3,323,985.86,17.0,64,20.89,0.0,1011.89,90.0
2018-08-19 10:40,50.63044,-96.9807766666667,9.7,17.6,325,985.87,16.8,63,20.86,0.0,1011.92,90.0
2018-08-19 10:50,50.63044,-96.9807733333333,8.0,15.7,317,986.03,16.5,64,20.83,0.0,1012.11,90.0
2018-08-19 11:00,50.63044,-96.98077,6.3,11.0,305,986.40,16.1,66,20.82,0.0,1012.53,360.0
2018-08-19 11:10,50.63044,-96.98077,7.3,11.6,309,986.73,15.8,66,20.81,0.0,1012.90,360.0
2018-08-19 11:20,50.630425,-96.980735,7.2,11.5,311,987.14,15.5,66,20.77,0.0,1013.34,360.0
2018-08-19 11:30,50.6304316666667,-96.9807483333333,8.1,12.6,315,987.39,15.3,65,20.75,0.0,1013.62,360.0
2018-08-19 11:40,50.63043,-96.980755,9.2,13.6,317,987.48,15.2,63,20.74,0.0,1013.72,360.0
2018-08-19 11:50,50.63043,-96.9807616666667,7.6,12.1,314,987.88,15.1,62,20.74,0.0,1014.16,360.0
2018-08-19 12:00,50.6304333333333,-96.9808,6.3,10.4,308,988.36,15.1,60,20.74,0.0,1014.66,256.3
2018-08-19 12:10,50.6304316666667,-96.9807716666667,6.2,8.9,308,988.47,15.0,60,20.72,0.0,1014.78,256.3
2018-08-19 12:20,50.6304333333333,-96.9807766666667,5.9,8.7,301,988.57,15.0,60,20.72,0.0,1014.89,256.3
2018-08-19 12:30,50.630435,-96.9807783333333,4.9,8.6,296,988.78,14.9,61,20.73,0.0,1015.12,256.3
2018-08-19 12:40,50.6304066666667,-96.9807783333333,5.0,7.8,308,988.94,14.8,61,20.72,0.0,1015.30,256.3
2018-08-19 12:50,50.630435,-96.9807466666667,5.8,9.4,304,989.17,15.1,60,20.69,0.0,1015.55,256.3
2018-08-19 13:00,50.6304383333333,-96.9807566666667,6.3,10.7,307,989.24,15.2,59,20.69,0.0,1015.63,90.0
2018-08-19 13:10,50.6304383333333,-96.9807583333333,6.2,8.9,299,989.23,15.3,59,20.68,0.0,1015.62,90.0
2018-08-19 13:20,50.6304016666667,-96.9807416666667,6.1,10.4,293,989.29,15.4,59,20.68,0.0,1015.70,90.0
2018-08-19 13:30,50.6304316666667,-96.9807716666667,5.9,10.5,293,989.39,15.6,59,20.67,0.0,1015.79,90.0
2018-08-19 13:40,50.6304333333333,-96.98076,7.0,12.4,294,989.40,15.8,58,20.64,0.0,1015.80,90.0
2018-08-19 13:50,50.6304333333333,-96.98076,9.3,13.6,308,989.44,15.9,58,20.63,0.0,1015.84,90.0
2018-08-19 14:00,50.630435,-96.98076,8.3,13.2,313,989.54,16.1,58,20.63,0.0,1015.93,167.4
2018-08-19 14:10,50.6304366666667,-96.98076,10.5,15.7,317,989.47,16.2,58,20.61,0.0,1015.86,167.4
2018-08-19 14:20,50.6304383333333,-96.98076,9.4,14.6,326,989.44,16.3,58,20.61,0.0,1015.82,167.4
2018-08-19 14:30,50.6304383333333,-96.9807616666667,10.2,17.2,333,989.28,16.5,59,20.59,0.0,1015.66,167.4
2018-08-19 14:40,50.63045,-96.9807983333333,10.1,15.3,321,989.34,16.6,58,20.58,0.0,1015.69,167.4
2018-08-19 14:50,50.63042,-96.980765,8.2,13.8,327,989.45,16.7,57,20.59,0.0,1015.80,167.4
2018-08-19 15:00,50.6304516666667,-96.9807816666667,8.5,15.1,321,989.50,17.0,57,20.59,0.0,1015.83,14.5
2018-08-19 15:10,50.6304416666667,-96.9807716666667,11.9,18.1,330,989.53,17.3,55,20.60,0.0,1015.84,14.5
2018-08-19 15:20,50.6304366666667,-96.9807733333333,10.4,14.3,338,989.66,17.5,55,20.60,0.0,1015.96,14.5
2018-08-19 15:30,50.6304333333333,-96.98077,8.9,13.2,335,989.86,17.7,54,20.61,0.0,1016.15,14.5
2018-08-19 15:40,50.630435,-96.98077,9.7,14.3,341,989.95,17.9,54,20.59,0.0,1016.23,14.5
2018-08-19 15:50,50.6304366666667,-96.9807716666667,7.7,13.8,327,989.96,18.2,53,20.55,0.0,1016.21,14.5
2018-08-19 16:00,50.6304383333333,-96.9807716666667,9.1,15.4,324,989.91,18.5,51,20.56,0.0,1016.14,270.0
2018-08-19 16:10,50.6304383333333,-96.9807716666667,7.3,11.7,320,990.08,18.8,50,20.57,0.0,1016.30,270.0
2018-08-19 16:20,50.6304383333333,-96.98077,9.4,13.6,327,990.06,18.9,49,20.59,0.0,1016.27,270.0
2018-08-19 16:30,50.6304383333333,-96.98078,9.8,15.8,340,990.13,19.0,50,20.60,0.0,1016.33,270.0
2018-08-19 16:40,50.63042,-96.9807733333333,9.6,14.4,334,990.16,19.1,48,20.63,0.0,1016.35,270.0
2018-08-19 16:50,50.6304266666667,-96.98078,9.5,16.8,333,990.28,19.2,48,20.66,0.0,1016.46,270.0
2018-08-19 17:00,50.6304333333333,-96.98077,8.8,14.7,355,990.37,19.3,50,20.69,0.0,1016.53,228.3
2018-08-19 17:10,50.63043,-96.9807666666667,12.6,19.2,5,990.26,19.2,52,20.70,0.0,1016.41,228.3
2018-08-19 17:20,50.6304316666667,-96.9807666666667,10.7,15.2,356,990.28,19.3,51,20.68,0.0,1016.42,228.3
2018-08-19 17:30,50.6304316666667,-96.980765,12.0,16.6,0,990.35,19.4,51,20.71,0.0,1016.48,228.3
2018-08-19 17:40,50.6304433333333,-96.9807983333333,9.5,14.4,352,990.43,19.3,51,20.75,0.0,1016.55,228.3
2018-08-19 17:50,50.6304466666667,-96.9807916666667,10.0,14.0,8,990.47,19.4,53,20.76,0.0,1016.57,228.3
2018-08-19 18:00,50.6304433333333,-96.9807866666667,11.1,14.7,18,990.34,19.2,54,20.74,0.0,1016.43,360.0
2018-08-19 18:10,50.63044,-96.980785,11.4,15.8,3,990.33,19.4,54,20.74,0.0,1016.40,360.0
2018-08-19 18:20,50.63044,-96.980785,10.3,14.6,355,990.41,19.4,53,20.72,0.0,1016.49,360.0
2018-08-19 18:30,50.6304383333333,-96.9807833333333,8.8,12.9,340,990.44,19.6,50,20.71,0.0,1016.50,360.0
2018-08-19 18:40,50.6304416666667,-96.98078,10.1,16.7,355,990.41,19.7,51,20.72,0.0,1016.47,360.0
2018-08-19 18:50,50.6304416666667,-96.98078,11.4,15.2,356,990.44,19.7,51,20.70,0.0,1016.50,360.0
2018-08-19 19:00,50.6304416666667,-96.9807783333333,9.7,12.9,353,990.50,19.8,51,20.68,0.0,1016.56,270.0
2018-08-19 19:10,50.6304416666667,-96.9807783333333,10.0,14.4,355,990.52,19.8,51,20.70,0.0,1016.57,270.0
2018-08-19 19:20,50.6304366666667,-96.9807583333333,9.2,15.0,357,990.50,19.9,51,20.68,0.0,1016.55,270.0
2018-08-19 19:30,50.6304433333333,-96.9807716666667,9.4,13.7,354,990.45,20.1,50,20.67,0.0,1016.48,270.0
2018-08-19 19:40,50.63044,-96.9807666666667,12.8,15.8,2,990.44,20.1,51,20.66,0.0,1016.47,270.0
2018-08-19 19:50,50.6304366666667,-96.9807666666667,11.5,14.4,4,990.52,20.0,53,20.68,0.0,1016.57,270.0
2018-08-19 20:00,50.6304366666667,-96.9807683333333,10.0,15.2,0,990.52,20.1,52,20.69,0.0,1016.56,38.0
2018-08-19 20:10,50.6304283333333,-96.9807833333333,12.4,15.0,15,990.51,19.8,58,20.69,0.0,1016.55,38.0
2018-08-19 20:20,50.630435,-96.980775,9.6,13.7,15,990.59,19.7,57,20.69,0.0,1016.63,38.0
2018-08-19 20:30,50.6304266666667,-96.9807783333333,10.0,12.9,359,990.60,20.1,52,20.69,0.0,1016.62,38.0
2018-08-19 20:40,50.63043,-96.9807683333333,9.4,15.2,354,990.58,20.2,52,20.69,0.0,1016.60,38.0
2018-08-19 20:50,50.6304333333333,-96.9807666666667,10.1,14.9,8,990.57,20.3,54,20.67,0.0,1016.58,38.0
2018-08-19 21:00,50.630435,-96.9807666666667,10.8,14.3,18,990.62,20.1,55,20.67,0.0,1016.64,106.8
2018-08-19 21:10,50.630435,-96.9807666666667,10.7,13.6,24,990.71,20.0,56,20.67,0.0,1016.73,106.8
2018-08-19 21:20,50.6304416666667,-96.9807733333333,12.6,15.1,22,990.69,20.0,57,20.67,0.0,1016.70,106.8
2018-08-19 21:30,50.6304433333333,-96.9807816666667,9.7,13.4,20,990.65,20.1,58,20.66,0.0,1016.66,106.8
2018-08-19 21:40,50.6304416666667,-96.98078,11.1,16.1,12,990.77,20.4,54,20.66,0.0,1016.77,106.8
2018-08-19 21:50,50.6304416666667,-96.9807783333333,12.9,17.1,26,990.83,20.1,59,20.67,0.0,1016.84,106.8
2018-08-19 22:00,50.63044,-96.9807766666667,15.0,17.0,24,990.76,20.0,58,20.67,0.0,1016.79,90.0
2018-08-19 22:10,50.630435,-96.980765,12.9,15.8,30,990.84,20.1,59,20.66,0.0,1016.87,90.0
2018-08-19 22:20,50.6304333333333,-96.980775,16.7,19.2,24,990.69,20.1,60,20.66,0.0,1016.70,90.0
2018-08-19 22:30,50.6304366666667,-96.98077,15.9,18.9,26,990.82,20.0,60,20.66,0.0,1016.83,90.0
2018-08-19 22:40,50.6304383333333,-96.98077,16.6,19.3,22,990.79,20.1,60,20.65,0.0,1016.79,90.0
2018-08-19 22:50,50.6304366666667,-96.9807633333333,15.7,19.5,20,990.80,20.2,60,20.64,0.0,1016.81,90.0
2018-08-19 23:00,50.6304366666667,-96.9807633333333,15.6,17.6,16,990.84,20.1,59,20.63,0.0,1016.86,0.0
2018-08-19 23:10,50.630435,-96.980765,15.3,17.7,23,990.96,20.2,59,20.63,0.0,1016.97,0.0
2018-08-19 23:20,50.6304383333333,-96.980775,15.9,17.9,23,990.98,20.2,58,20.62,0.0,1016.99,0.0
2018-08-19 23:30,50.630435,-96.980775,15.1,17.6,18,991.09,20.1,60,20.61,0.0,1017.10,0.0
